owner,sensor,date,latitude,longitude,vertical_datum,direction_of_sea_water_velocity,sea_water_speed,upward_sea_water_velocity,qcFlag 
WAVCIS,ioos:station:WAVCIS:CSI16:1,2009-05-01T00:00:00Z,29.4012,-89.0355,10.86,27.0,0.074,-99999.0,'11133222,11111222,99999999' 
WAVCIS,ioos:station:WAVCIS:CSI16:1,2009-05-01T01:00:00Z,29.4012,-89.0355,10.86,357.0,0.021,-99999.0,'11133222,11111222,99999999' 
WAVCIS,ioos:station:WAVCIS:CSI16:1,2009-05-01T02:00:00Z,29.4012,-89.0355,10.86,65.0,0.054,-99999.0,'11133222,11111222,99999999' 
WAVCIS,ioos:station:WAVCIS:CSI16:1,2009-05-01T03:00:00Z,29.4012,-89.0355,10.86,36.0,0.112,-99999.0,'11133222,11111222,99999999' 
WAVCIS,ioos:station:WAVCIS:CSI16:1,2009-05-01T04:00:00Z,29.4012,-89.0355,10.86,27.0,0.169,-99999.0,'11133222,11111222,99999999' 
WAVCIS,ioos:station:WAVCIS:CSI16:1,2009-05-01T05:00:00Z,29.4012,-89.0355,10.86,32.0,0.229,-99999.0,'11133222,11111222,99999999' 
WAVCIS,ioos:station:WAVCIS:CSI16:1,2009-05-01T06:00:00Z,29.4012,-89.0355,10.86,27.0,0.217,-99999.0,'11133222,11111222,99999999' 
WAVCIS,ioos:station:WAVCIS:CSI16:1,2009-05-01T07:00:00Z,29.4012,-89.0355,10.86,24.0,0.164,-99999.0,'11133222,11111222,99999999' 
WAVCIS,ioos:station:WAVCIS:CSI16:1,2009-05-01T08:00:00Z,29.4012,-89.0355,10.86,30.0,0.212,-99999.0,'11133222,11111222,99999999' 
WAVCIS,ioos:station:WAVCIS:CSI16:1,2009-05-01T09:00:00Z,29.4012,-89.0355,10.86,28.0,0.319,-99999.0,'11133222,11111222,99999999' 
WAVCIS,ioos:station:WAVCIS:CSI16:1,2009-05-01T10:00:00Z,29.4012,-89.0355,10.86,34.0,0.348,-99999.0,'11133222,11111222,99999999' 
WAVCIS,ioos:station:WAVCIS:CSI16:1,2009-05-01T11:00:00Z,29.4012,-89.0355,10.86,33.0,0.308,-99999.0,'11133222,11111222,99999999' 
WAVCIS,ioos:station:WAVCIS:CSI16:1,2009-05-01T12:00:00Z,29.4012,-89.0355,10.86,20.0,0.22,-99999.0,'11133222,11111222,99999999' 
WAVCIS,ioos:station:WAVCIS:CSI16:1,2009-05-01T13:00:00Z,29.4012,-89.0355,10.86,26.0,0.191,-99999.0,'11133222,11111222,99999999' 
WAVCIS,ioos:station:WAVCIS:CSI16:1,2009-05-01T14:00:00Z,29.4012,-89.0355,11.36,40.0,0.113,-99999.0,'11133222,11111222,99999999' 
WAVCIS,ioos:station:WAVCIS:CSI16:1,2009-05-01T15:00:00Z,29.4012,-89.0355,11.36,51.0,0.227,-99999.0,'11133222,11111222,99999999' 
WAVCIS,ioos:station:WAVCIS:CSI16:1,2009-05-01T16:00:00Z,29.4012,-89.0355,11.36,56.0,0.227,-99999.0,'11133222,11111222,99999999' 
WAVCIS,ioos:station:WAVCIS:CSI16:1,2009-05-01T17:00:00Z,29.4012,-89.0355,11.36,66.0,0.105,-99999.0,'11133222,11111222,99999999' 
WAVCIS,ioos:station:WAVCIS:CSI16:1,2009-05-01T18:00:00Z,29.4012,-89.0355,11.36,48.0,0.276,-99999.0,'11133222,11111222,99999999' 
WAVCIS,ioos:station:WAVCIS:CSI16:1,2009-05-01T19:00:00Z,29.4012,-89.0355,11.36,55.0,0.28,-99999.0,'11133222,11111222,99999999' 
WAVCIS,ioos:station:WAVCIS:CSI16:1,2009-05-01T20:00:00Z,29.4012,-89.0355,11.36,50.0,0.354,-99999.0,'11133222,11111222,99999999' 
WAVCIS,ioos:station:WAVCIS:CSI16:1,2009-05-01T21:00:00Z,29.4012,-89.0355,11.36,51.0,0.376,-99999.0,'11133222,11111222,99999999' 
WAVCIS,ioos:station:WAVCIS:CSI16:1,2009-05-01T22:00:00Z,29.4012,-89.0355,11.36,53.0,0.316,-99999.0,'11133222,11111222,99999999' 
WAVCIS,ioos:station:WAVCIS:CSI16:1,2009-05-01T23:00:00Z,29.4012,-89.0355,11.36,56.0,0.32,-99999.0,'11133222,11111222,99999999' 
WAVCIS,ioos:station:WAVCIS:CSI16:1,2009-05-02T00:00:00Z,29.4012,-89.0355,11.36,56.0,0.279,-99999.0,'11133222,11111222,99999999' 
WAVCIS,ioos:station:WAVCIS:CSI16:1,2009-05-02T01:00:00Z,29.4012,-89.0355,10.86,47.0,0.129,-99999.0,'11133222,11111222,99999999' 
WAVCIS,ioos:station:WAVCIS:CSI16:1,2009-05-02T02:00:00Z,29.4012,-89.0355,10.86,42.0,0.152,-99999.0,'11133222,11111222,99999999' 
WAVCIS,ioos:station:WAVCIS:CSI16:1,2009-05-02T03:00:00Z,29.4012,-89.0355,10.86,40.0,0.108,-99999.0,'11133222,11111222,99999999' 
WAVCIS,ioos:station:WAVCIS:CSI16:1,2009-05-02T04:00:00Z,29.4012,-89.0355,10.86,33.0,0.126,-99999.0,'11133222,11111222,99999999' 
WAVCIS,ioos:station:WAVCIS:CSI16:1,2009-05-02T05:00:00Z,29.4012,-89.0355,10.86,39.0,0.072,-99999.0,'11133222,11111222,99999999' 
WAVCIS,ioos:station:WAVCIS:CSI16:1,2009-05-02T06:00:00Z,29.4012,-89.0355,10.86,31.0,0.115,-99999.0,'11133222,11111222,99999999' 
WAVCIS,ioos:station:WAVCIS:CSI16:1,2009-05-02T07:00:00Z,29.4012,-89.0355,10.86,32.0,0.128,-99999.0,'11133222,11111222,99999999' 
WAVCIS,ioos:station:WAVCIS:CSI16:1,2009-05-02T08:00:00Z,29.4012,-89.0355,10.86,30.0,0.149,-99999.0,'11133222,11111222,99999999' 
WAVCIS,ioos:station:WAVCIS:CSI16:1,2009-05-02T09:00:00Z,29.4012,-89.0355,10.86,19.0,0.173,-99999.0,'11133222,11111222,99999999' 
WAVCIS,ioos:station:WAVCIS:CSI16:1,2009-05-02T10:00:00Z,29.4012,-89.0355,10.86,25.0,0.195,-99999.0,'11133222,11111222,99999999' 
WAVCIS,ioos:station:WAVCIS:CSI16:1,2009-05-02T11:00:00Z,29.4012,-89.0355,10.86,19.0,0.169,-99999.0,'11133222,11111222,99999999' 
WAVCIS,ioos:station:WAVCIS:CSI16:1,2009-05-02T12:00:00Z,29.4012,-89.0355,10.86,17.0,0.154,-99999.0,'11133222,11111222,99999999' 
WAVCIS,ioos:station:WAVCIS:CSI16:1,2009-05-02T13:00:00Z,29.4012,-89.0355,11.36,29.0,0.19,-99999.0,'11133222,11111222,99999999' 
WAVCIS,ioos:station:WAVCIS:CSI16:1,2009-05-02T14:00:00Z,29.4012,-89.0355,11.36,20.0,0.207,-99999.0,'11133222,11111222,99999999' 
WAVCIS,ioos:station:WAVCIS:CSI16:1,2009-05-02T15:00:00Z,29.4012,-89.0355,11.36,32.0,0.168,-99999.0,'11133222,11111222,99999999' 
WAVCIS,ioos:station:WAVCIS:CSI16:1,2009-05-02T16:00:00Z,29.4012,-89.0355,11.36,55.0,0.174,-99999.0,'11133222,11111222,99999999' 
WAVCIS,ioos:station:WAVCIS:CSI16:1,2009-05-02T17:00:00Z,29.4012,-89.0355,11.36,55.0,0.233,-99999.0,'11133222,11111222,99999999' 
WAVCIS,ioos:station:WAVCIS:CSI16:1,2009-05-02T18:00:00Z,29.4012,-89.0355,11.36,61.0,0.307,-99999.0,'11133222,11111222,99999999' 
WAVCIS,ioos:station:WAVCIS:CSI16:1,2009-05-02T19:00:00Z,29.4012,-89.0355,11.36,53.0,0.265,-99999.0,'11133222,11111222,99999999' 
WAVCIS,ioos:station:WAVCIS:CSI16:1,2009-05-02T20:00:00Z,29.4012,-89.0355,11.36,56.0,0.341,-99999.0,'11133222,11111222,99999999' 
WAVCIS,ioos:station:WAVCIS:CSI16:1,2009-05-02T21:00:00Z,29.4012,-89.0355,11.36,68.0,0.263,-99999.0,'11133222,11111222,99999999' 
WAVCIS,ioos:station:WAVCIS:CSI16:1,2009-05-02T22:00:00Z,29.4012,-89.0355,11.36,62.0,0.284,-99999.0,'11133222,11111222,99999999' 
WAVCIS,ioos:station:WAVCIS:CSI16:1,2009-05-02T23:00:00Z,29.4012,-89.0355,11.36,72.0,0.193,-99999.0,'11133222,11111222,99999999' 
WAVCIS,ioos:station:WAVCIS:CSI16:1,2009-05-03T00:00:00Z,29.4012,-89.0355,11.36,91.0,0.149,-99999.0,'11133222,11111222,99999999' 
WAVCIS,ioos:station:WAVCIS:CSI16:1,2009-05-03T01:00:00Z,29.4012,-89.0355,11.36,80.0,0.325,-99999.0,'11133222,11111222,99999999' 
WAVCIS,ioos:station:WAVCIS:CSI16:1,2009-05-03T02:00:00Z,29.4012,-89.0355,10.86,77.0,0.22,-99999.0,'11133222,11111222,99999999' 
WAVCIS,ioos:station:WAVCIS:CSI16:1,2009-05-03T03:00:00Z,29.4012,-89.0355,10.86,80.0,0.273,-99999.0,'11133222,11111222,99999999' 
WAVCIS,ioos:station:WAVCIS:CSI16:1,2009-05-03T04:00:00Z,29.4012,-89.0355,10.86,89.0,0.209,-99999.0,'11133222,11111222,99999999' 
WAVCIS,ioos:station:WAVCIS:CSI16:1,2009-05-03T05:00:00Z,29.4012,-89.0355,10.86,83.0,0.219,-99999.0,'11133222,11111222,99999999' 
WAVCIS,ioos:station:WAVCIS:CSI16:1,2009-05-03T06:00:00Z,29.4012,-89.0355,10.86,89.0,0.206,-99999.0,'11133222,11111222,99999999' 
WAVCIS,ioos:station:WAVCIS:CSI16:1,2009-05-03T07:00:00Z,29.4012,-89.0355,10.86,93.0,0.167,-99999.0,'11133222,11111222,99999999' 
WAVCIS,ioos:station:WAVCIS:CSI16:1,2009-05-03T08:00:00Z,29.4012,-89.0355,10.86,92.0,0.211,-99999.0,'11133222,11111222,99999999' 
WAVCIS,ioos:station:WAVCIS:CSI16:1,2009-05-03T09:00:00Z,29.4012,-89.0355,10.86,85.0,0.182,-99999.0,'11133222,11111222,99999999' 
WAVCIS,ioos:station:WAVCIS:CSI16:1,2009-05-03T10:00:00Z,29.4012,-89.0355,10.86,79.0,0.181,-99999.0,'11133222,11111222,99999999' 
WAVCIS,ioos:station:WAVCIS:CSI16:1,2009-05-03T11:00:00Z,29.4012,-89.0355,10.86,75.0,0.22,-99999.0,'11133222,11111222,99999999' 
WAVCIS,ioos:station:WAVCIS:CSI16:1,2009-05-03T12:00:00Z,29.4012,-89.0355,10.86,56.0,0.296,-99999.0,'11133222,11111222,99999999' 
WAVCIS,ioos:station:WAVCIS:CSI16:1,2009-05-03T13:00:00Z,29.4012,-89.0355,10.86,60.0,0.299,-99999.0,'11133222,11111222,99999999' 
WAVCIS,ioos:station:WAVCIS:CSI16:1,2009-05-03T14:00:00Z,29.4012,-89.0355,10.86,62.0,0.262,-99999.0,'11133222,11111222,99999999' 
WAVCIS,ioos:station:WAVCIS:CSI16:1,2009-05-03T15:00:00Z,29.4012,-89.0355,10.86,56.0,0.295,-99999.0,'11133222,11111222,99999999' 
WAVCIS,ioos:station:WAVCIS:CSI16:1,2009-05-03T16:00:00Z,29.4012,-89.0355,10.86,57.0,0.204,-99999.0,'11133222,11111222,99999999' 
WAVCIS,ioos:station:WAVCIS:CSI16:1,2009-05-03T17:00:00Z,29.4012,-89.0355,10.86,88.0,0.138,-99999.0,'11133222,11111222,99999999' 
WAVCIS,ioos:station:WAVCIS:CSI16:1,2009-05-03T18:00:00Z,29.4012,-89.0355,10.86,103.0,0.145,-99999.0,'11133222,11111222,99999999' 
WAVCIS,ioos:station:WAVCIS:CSI16:1,2009-05-03T19:00:00Z,29.4012,-89.0355,10.86,91.0,0.178,-99999.0,'11133222,11111222,99999999' 
WAVCIS,ioos:station:WAVCIS:CSI16:1,2009-05-03T20:00:00Z,29.4012,-89.0355,10.86,90.0,0.217,-99999.0,'11133222,11111222,99999999' 
WAVCIS,ioos:station:WAVCIS:CSI16:1,2009-05-03T21:00:00Z,29.4012,-89.0355,10.86,81.0,0.206,-99999.0,'11133222,11111222,99999999' 
WAVCIS,ioos:station:WAVCIS:CSI16:1,2009-05-03T22:00:00Z,29.4012,-89.0355,10.86,88.0,0.17,-99999.0,'11133222,11111222,99999999' 
WAVCIS,ioos:station:WAVCIS:CSI16:1,2009-05-03T23:00:00Z,29.4012,-89.0355,11.36,79.0,0.401,-99999.0,'11133222,11111222,99999999' 
WAVCIS,ioos:station:WAVCIS:CSI16:1,2009-05-04T00:00:00Z,29.4012,-89.0355,11.36,75.0,0.265,-99999.0,'11133222,11111222,99999999' 
WAVCIS,ioos:station:WAVCIS:CSI16:1,2009-05-04T01:00:00Z,29.4012,-89.0355,10.86,52.0,0.329,-99999.0,'11133222,11111222,99999999' 
WAVCIS,ioos:station:WAVCIS:CSI16:1,2009-05-04T02:00:00Z,29.4012,-89.0355,10.86,70.0,0.507,-99999.0,'11133222,11111222,99999999' 
WAVCIS,ioos:station:WAVCIS:CSI16:1,2009-05-04T03:00:00Z,29.4012,-89.0355,10.86,80.0,0.553,-99999.0,'11133222,11111222,99999999' 
WAVCIS,ioos:station:WAVCIS:CSI16:1,2009-05-04T04:00:00Z,29.4012,-89.0355,10.86,81.0,0.499,-99999.0,'11133222,11111222,99999999' 
WAVCIS,ioos:station:WAVCIS:CSI16:1,2009-05-04T05:00:00Z,29.4012,-89.0355,10.86,98.0,0.423,-99999.0,'11133222,11111222,99999999' 
WAVCIS,ioos:station:WAVCIS:CSI16:1,2009-05-04T06:00:00Z,29.4012,-89.0355,10.86,99.0,0.315,-99999.0,'11133222,11111222,99999999' 
WAVCIS,ioos:station:WAVCIS:CSI16:1,2009-05-04T07:00:00Z,29.4012,-89.0355,10.86,98.0,0.25,-99999.0,'11133222,11111222,99999999' 
WAVCIS,ioos:station:WAVCIS:CSI16:1,2009-05-04T08:00:00Z,29.4012,-89.0355,10.86,119.0,0.117,-99999.0,'11133222,11111222,99999999' 
WAVCIS,ioos:station:WAVCIS:CSI16:1,2009-05-04T09:00:00Z,29.4012,-89.0355,10.86,99.0,0.107,-99999.0,'11133222,11111222,99999999' 
WAVCIS,ioos:station:WAVCIS:CSI16:1,2009-05-04T10:00:00Z,29.4012,-89.0355,10.86,135.0,0.111,-99999.0,'11133222,11111222,99999999' 
WAVCIS,ioos:station:WAVCIS:CSI16:1,2009-05-04T11:00:00Z,29.4012,-89.0355,10.86,140.0,0.202,-99999.0,'11133222,11111222,99999999' 
WAVCIS,ioos:station:WAVCIS:CSI16:1,2009-05-04T12:00:00Z,29.4012,-89.0355,10.86,131.0,0.241,-99999.0,'11133222,11111222,99999999' 
WAVCIS,ioos:station:WAVCIS:CSI16:1,2009-05-04T13:00:00Z,29.4012,-89.0355,10.86,89.0,0.092,-99999.0,'11133222,11111222,99999999' 
WAVCIS,ioos:station:WAVCIS:CSI16:1,2009-05-04T14:00:00Z,29.4012,-89.0355,10.86,154.0,0.132,-99999.0,'11133222,11111222,99999999' 
WAVCIS,ioos:station:WAVCIS:CSI16:1,2009-05-04T15:00:00Z,29.4012,-89.0355,10.86,177.0,0.177,-99999.0,'11133222,11111222,99999999' 
WAVCIS,ioos:station:WAVCIS:CSI16:1,2009-05-04T16:00:00Z,29.4012,-89.0355,10.86,154.0,0.176,-99999.0,'11133222,11111222,99999999' 
WAVCIS,ioos:station:WAVCIS:CSI16:1,2009-05-04T17:00:00Z,29.4012,-89.0355,10.86,121.0,0.267,-99999.0,'11133222,11111222,99999999' 
WAVCIS,ioos:station:WAVCIS:CSI16:1,2009-05-04T18:00:00Z,29.4012,-89.0355,10.86,145.0,0.235,-99999.0,'11133222,11111222,99999999' 
WAVCIS,ioos:station:WAVCIS:CSI16:1,2009-05-04T19:00:00Z,29.4012,-89.0355,10.86,145.0,0.146,-99999.0,'11133222,11111222,99999999' 
WAVCIS,ioos:station:WAVCIS:CSI16:1,2009-05-04T20:00:00Z,29.4012,-89.0355,10.86,151.0,0.167,-99999.0,'11133222,11111222,99999999' 
WAVCIS,ioos:station:WAVCIS:CSI16:1,2009-05-04T21:00:00Z,29.4012,-89.0355,10.86,164.0,0.271,-99999.0,'11133222,11111222,99999999' 
WAVCIS,ioos:station:WAVCIS:CSI16:1,2009-05-04T22:00:00Z,29.4012,-89.0355,10.86,128.0,0.179,-99999.0,'11133222,11111222,99999999' 
WAVCIS,ioos:station:WAVCIS:CSI16:1,2009-05-04T23:00:00Z,29.4012,-89.0355,10.86,150.0,0.193,-99999.0,'11133222,11111222,99999999' 
WAVCIS,ioos:station:WAVCIS:CSI16:1,2009-05-05T00:00:00Z,29.4012,-89.0355,10.86,142.0,0.138,-99999.0,'11133222,11111222,99999999' 
WAVCIS,ioos:station:WAVCIS:CSI16:1,2009-05-05T01:00:00Z,29.4012,-89.0355,10.86,106.0,0.097,-99999.0,'11133222,11111222,99999999' 
WAVCIS,ioos:station:WAVCIS:CSI16:1,2009-05-05T02:00:00Z,29.4012,-89.0355,10.86,64.0,0.168,-99999.0,'11133222,11111222,99999999' 
WAVCIS,ioos:station:WAVCIS:CSI16:1,2009-05-05T03:00:00Z,29.4012,-89.0355,10.86,78.0,0.228,-99999.0,'11133222,11111222,99999999' 
WAVCIS,ioos:station:WAVCIS:CSI16:1,2009-05-05T04:00:00Z,29.4012,-89.0355,10.86,81.0,0.185,-99999.0,'11133222,11111222,99999999' 
WAVCIS,ioos:station:WAVCIS:CSI16:1,2009-05-05T05:00:00Z,29.4012,-89.0355,10.86,87.0,0.157,-99999.0,'11133222,11111222,99999999' 
WAVCIS,ioos:station:WAVCIS:CSI16:1,2009-05-05T06:00:00Z,29.4012,-89.0355,10.86,89.0,0.155,-99999.0,'11133222,11111222,99999999' 
WAVCIS,ioos:station:WAVCIS:CSI16:1,2009-05-05T07:00:00Z,29.4012,-89.0355,10.86,78.0,0.085,-99999.0,'11133222,11111222,99999999' 
WAVCIS,ioos:station:WAVCIS:CSI16:1,2009-05-05T08:00:00Z,29.4012,-89.0355,11.36,98.0,0.264,-99999.0,'11133222,11111222,99999999' 
WAVCIS,ioos:station:WAVCIS:CSI16:1,2009-05-05T09:00:00Z,29.4012,-89.0355,11.36,86.0,0.272,-99999.0,'11133222,11111222,99999999' 
WAVCIS,ioos:station:WAVCIS:CSI16:1,2009-05-05T10:00:00Z,29.4012,-89.0355,11.36,111.0,0.164,-99999.0,'11133222,11111222,99999999' 
WAVCIS,ioos:station:WAVCIS:CSI16:1,2009-05-05T11:00:00Z,29.4012,-89.0355,11.36,134.0,0.13,-99999.0,'11133222,11111222,99999999' 
WAVCIS,ioos:station:WAVCIS:CSI16:1,2009-05-05T12:00:00Z,29.4012,-89.0355,11.36,180.0,0.008,-99999.0,'11133222,11111222,99999999' 
WAVCIS,ioos:station:WAVCIS:CSI16:1,2009-05-05T13:00:00Z,29.4012,-89.0355,11.36,243.0,0.037,-99999.0,'11133222,11111222,99999999' 
WAVCIS,ioos:station:WAVCIS:CSI16:1,2009-05-05T14:00:00Z,29.4012,-89.0355,11.36,179.0,0.057,-99999.0,'11133222,11111222,99999999' 
WAVCIS,ioos:station:WAVCIS:CSI16:1,2009-05-05T15:00:00Z,29.4012,-89.0355,11.36,139.0,0.12,-99999.0,'11133222,11111222,99999999' 
WAVCIS,ioos:station:WAVCIS:CSI16:1,2009-05-05T16:00:00Z,29.4012,-89.0355,11.36,132.0,0.19,-99999.0,'11133222,11111222,99999999' 
WAVCIS,ioos:station:WAVCIS:CSI16:1,2009-05-05T17:00:00Z,29.4012,-89.0355,11.36,121.0,0.247,-99999.0,'11133222,11111222,99999999' 
WAVCIS,ioos:station:WAVCIS:CSI16:1,2009-05-05T18:00:00Z,29.4012,-89.0355,10.86,115.0,0.178,-99999.0,'11133222,11111222,99999999' 
WAVCIS,ioos:station:WAVCIS:CSI16:1,2009-05-05T19:00:00Z,29.4012,-89.0355,10.86,130.0,0.17,-99999.0,'11133222,11111222,99999999' 
WAVCIS,ioos:station:WAVCIS:CSI16:1,2009-05-05T20:00:00Z,29.4012,-89.0355,10.86,156.0,0.142,-99999.0,'11133222,11111222,99999999' 
WAVCIS,ioos:station:WAVCIS:CSI16:1,2009-05-05T21:00:00Z,29.4012,-89.0355,10.86,154.0,0.159,-99999.0,'11133222,11111222,99999999' 
WAVCIS,ioos:station:WAVCIS:CSI16:1,2009-05-05T22:00:00Z,29.4012,-89.0355,10.86,161.0,0.138,-99999.0,'11133222,11111222,99999999' 
WAVCIS,ioos:station:WAVCIS:CSI16:1,2009-05-05T23:00:00Z,29.4012,-89.0355,10.86,136.0,0.181,-99999.0,'11133222,11111222,99999999' 
WAVCIS,ioos:station:WAVCIS:CSI16:1,2009-05-06T00:00:00Z,29.4012,-89.0355,10.86,122.0,0.084,-99999.0,'11133222,11111222,99999999' 
WAVCIS,ioos:station:WAVCIS:CSI16:1,2009-05-06T01:00:00Z,29.4012,-89.0355,10.86,87.0,0.199,-99999.0,'11133222,11111222,99999999' 
WAVCIS,ioos:station:WAVCIS:CSI16:1,2009-05-06T02:00:00Z,29.4012,-89.0355,10.86,84.0,0.27,-99999.0,'11133222,11111222,99999999' 
WAVCIS,ioos:station:WAVCIS:CSI16:1,2009-05-06T03:00:00Z,29.4012,-89.0355,10.86,79.0,0.357,-99999.0,'11133222,11111222,99999999' 
WAVCIS,ioos:station:WAVCIS:CSI16:1,2009-05-06T04:00:00Z,29.4012,-89.0355,10.86,77.0,0.469,-99999.0,'11133222,11111222,99999999' 
WAVCIS,ioos:station:WAVCIS:CSI16:1,2009-05-06T05:00:00Z,29.4012,-89.0355,10.86,73.0,0.511,-99999.0,'11133222,11111222,99999999' 
WAVCIS,ioos:station:WAVCIS:CSI16:1,2009-05-06T06:00:00Z,29.4012,-89.0355,10.86,75.0,0.672,-99999.0,'11133222,11111222,99999999' 
WAVCIS,ioos:station:WAVCIS:CSI16:1,2009-05-06T07:00:00Z,29.4012,-89.0355,10.86,78.0,0.684,-99999.0,'11133222,11111222,99999999' 
WAVCIS,ioos:station:WAVCIS:CSI16:1,2009-05-06T08:00:00Z,29.4012,-89.0355,10.86,71.0,0.435,-99999.0,'11133222,11111222,99999999' 
WAVCIS,ioos:station:WAVCIS:CSI16:1,2009-05-06T09:00:00Z,29.4012,-89.0355,10.86,75.0,0.495,-99999.0,'11133222,11111222,99999999' 
WAVCIS,ioos:station:WAVCIS:CSI16:1,2009-05-06T10:00:00Z,29.4012,-89.0355,10.86,86.0,0.661,-99999.0,'11133222,11111222,99999999' 
WAVCIS,ioos:station:WAVCIS:CSI16:1,2009-05-06T11:00:00Z,29.4012,-89.0355,10.86,93.0,0.39,-99999.0,'11133222,11111222,99999999' 
WAVCIS,ioos:station:WAVCIS:CSI16:1,2009-05-06T12:00:00Z,29.4012,-89.0355,10.86,89.0,0.213,-99999.0,'11133222,11111222,99999999' 
WAVCIS,ioos:station:WAVCIS:CSI16:1,2009-05-06T13:00:00Z,29.4012,-89.0355,11.36,77.0,0.235,-99999.0,'11133222,11111222,99999999' 
WAVCIS,ioos:station:WAVCIS:CSI16:1,2009-05-06T14:00:00Z,29.4012,-89.0355,11.36,86.0,0.414,-99999.0,'11133222,11111222,99999999' 
WAVCIS,ioos:station:WAVCIS:CSI16:1,2009-05-06T15:00:00Z,29.4012,-89.0355,11.36,92.0,0.367,-99999.0,'11133222,11111222,99999999' 
WAVCIS,ioos:station:WAVCIS:CSI16:1,2009-05-06T16:00:00Z,29.4012,-89.0355,10.86,103.0,0.199,-99999.0,'11133222,11111222,99999999' 
WAVCIS,ioos:station:WAVCIS:CSI16:1,2009-05-06T17:00:00Z,29.4012,-89.0355,10.86,118.0,0.24,-99999.0,'11133222,11111222,99999999' 
WAVCIS,ioos:station:WAVCIS:CSI16:1,2009-05-06T18:00:00Z,29.4012,-89.0355,10.86,102.0,0.298,-99999.0,'11133222,11111222,99999999' 
WAVCIS,ioos:station:WAVCIS:CSI16:1,2009-05-06T19:00:00Z,29.4012,-89.0355,10.86,125.0,0.267,-99999.0,'11133222,11111222,99999999' 
WAVCIS,ioos:station:WAVCIS:CSI16:1,2009-05-06T20:00:00Z,29.4012,-89.0355,10.86,115.0,0.189,-99999.0,'11133222,11111222,99999999' 
WAVCIS,ioos:station:WAVCIS:CSI16:1,2009-05-06T21:00:00Z,29.4012,-89.0355,10.86,109.0,0.119,-99999.0,'11133222,11111222,99999999' 
WAVCIS,ioos:station:WAVCIS:CSI16:1,2009-05-06T22:00:00Z,29.4012,-89.0355,10.86,112.0,0.082,-99999.0,'11133222,11111222,99999999' 
WAVCIS,ioos:station:WAVCIS:CSI16:1,2009-05-06T23:00:00Z,29.4012,-89.0355,10.86,95.0,0.182,-99999.0,'11133222,11111222,99999999' 
WAVCIS,ioos:station:WAVCIS:CSI16:1,2009-05-07T00:00:00Z,29.4012,-89.0355,10.86,88.0,0.19,-99999.0,'11133222,11111222,99999999' 
WAVCIS,ioos:station:WAVCIS:CSI16:1,2009-05-07T01:00:00Z,29.4012,-89.0355,10.86,71.0,0.165,-99999.0,'11133222,11111222,99999999' 
WAVCIS,ioos:station:WAVCIS:CSI16:1,2009-05-07T02:00:00Z,29.4012,-89.0355,10.86,76.0,0.315,-99999.0,'11133222,11111222,99999999' 
WAVCIS,ioos:station:WAVCIS:CSI16:1,2009-05-07T03:00:00Z,29.4012,-89.0355,10.86,80.0,0.311,-99999.0,'11133222,11111222,99999999' 
WAVCIS,ioos:station:WAVCIS:CSI16:1,2009-05-07T04:00:00Z,29.4012,-89.0355,10.86,80.0,0.342,-99999.0,'11133222,11111222,99999999' 
WAVCIS,ioos:station:WAVCIS:CSI16:1,2009-05-07T05:00:00Z,29.4012,-89.0355,10.86,82.0,0.327,-99999.0,'11133222,11111222,99999999' 
WAVCIS,ioos:station:WAVCIS:CSI16:1,2009-05-07T06:00:00Z,29.4012,-89.0355,10.86,81.0,0.367,-99999.0,'11133222,11111222,99999999' 
WAVCIS,ioos:station:WAVCIS:CSI16:1,2009-05-07T07:00:00Z,29.4012,-89.0355,10.86,90.0,0.288,-99999.0,'11133222,11111222,99999999' 
WAVCIS,ioos:station:WAVCIS:CSI16:1,2009-05-07T08:00:00Z,29.4012,-89.0355,11.36,87.0,0.305,-99999.0,'11133222,11111222,99999999' 
WAVCIS,ioos:station:WAVCIS:CSI16:1,2009-05-07T09:00:00Z,29.4012,-89.0355,11.36,82.0,0.151,-99999.0,'11133222,11111222,99999999' 
WAVCIS,ioos:station:WAVCIS:CSI16:1,2009-05-07T10:00:00Z,29.4012,-89.0355,11.36,65.0,0.081,-99999.0,'11133222,11111222,99999999' 
WAVCIS,ioos:station:WAVCIS:CSI16:1,2009-05-07T11:00:00Z,29.4012,-89.0355,11.36,51.0,0.07,-99999.0,'11133222,11111222,99999999' 
WAVCIS,ioos:station:WAVCIS:CSI16:1,2009-05-07T12:00:00Z,29.4012,-89.0355,11.36,79.0,0.221,-99999.0,'11133222,11111222,99999999' 
WAVCIS,ioos:station:WAVCIS:CSI16:1,2009-05-07T13:00:00Z,29.4012,-89.0355,11.36,90.0,0.019,-99999.0,'11133222,11111222,99999999' 
WAVCIS,ioos:station:WAVCIS:CSI16:1,2009-05-07T14:00:00Z,29.4012,-89.0355,11.36,22.0,0.022,-99999.0,'11133222,11111222,99999999' 
WAVCIS,ioos:station:WAVCIS:CSI16:1,2009-05-07T15:00:00Z,29.4012,-89.0355,11.36,74.0,0.213,-99999.0,'11133222,11111222,99999999' 
WAVCIS,ioos:station:WAVCIS:CSI16:1,2009-05-07T16:00:00Z,29.4012,-89.0355,11.36,89.0,0.29,-99999.0,'11133222,11111222,99999999' 
WAVCIS,ioos:station:WAVCIS:CSI16:1,2009-05-07T17:00:00Z,29.4012,-89.0355,10.86,117.0,0.212,-99999.0,'11133222,11111222,99999999' 
WAVCIS,ioos:station:WAVCIS:CSI16:1,2009-05-07T18:00:00Z,29.4012,-89.0355,10.86,117.0,0.295,-99999.0,'11133222,11111222,99999999' 
WAVCIS,ioos:station:WAVCIS:CSI16:1,2009-05-07T19:00:00Z,29.4012,-89.0355,10.86,119.0,0.398,-99999.0,'11133222,11111222,99999999' 
WAVCIS,ioos:station:WAVCIS:CSI16:1,2009-05-07T20:00:00Z,29.4012,-89.0355,10.86,131.0,0.345,-99999.0,'11133222,11111222,99999999' 
WAVCIS,ioos:station:WAVCIS:CSI16:1,2009-05-07T21:00:00Z,29.4012,-89.0355,10.86,146.0,0.278,-99999.0,'11133222,11111222,99999999' 
WAVCIS,ioos:station:WAVCIS:CSI16:1,2009-05-07T22:00:00Z,29.4012,-89.0355,10.86,188.0,0.249,-99999.0,'11133222,11111222,99999999' 
WAVCIS,ioos:station:WAVCIS:CSI16:1,2009-05-07T23:00:00Z,29.4012,-89.0355,10.86,220.0,0.584,-99999.0,'11133222,11111222,99999999' 
WAVCIS,ioos:station:WAVCIS:CSI16:1,2009-05-08T00:00:00Z,29.4012,-89.0355,10.86,211.0,0.363,-99999.0,'11133222,11111222,99999999' 
WAVCIS,ioos:station:WAVCIS:CSI16:1,2009-05-08T01:00:00Z,29.4012,-89.0355,10.86,174.0,0.07,-99999.0,'11133222,11111222,99999999' 
WAVCIS,ioos:station:WAVCIS:CSI16:1,2009-05-08T02:00:00Z,29.4012,-89.0355,10.86,133.0,0.166,-99999.0,'11133222,11111222,99999999' 
WAVCIS,ioos:station:WAVCIS:CSI16:1,2009-05-08T03:00:00Z,29.4012,-89.0355,10.86,90.0,0.148,-99999.0,'11133222,11111222,99999999' 
WAVCIS,ioos:station:WAVCIS:CSI16:1,2009-05-08T04:00:00Z,29.4012,-89.0355,10.86,73.0,0.207,-99999.0,'11133222,11111222,99999999' 
WAVCIS,ioos:station:WAVCIS:CSI16:1,2009-05-08T05:00:00Z,29.4012,-89.0355,10.86,83.0,0.211,-99999.0,'11133222,11111222,99999999' 
WAVCIS,ioos:station:WAVCIS:CSI16:1,2009-05-08T06:00:00Z,29.4012,-89.0355,10.86,75.0,0.223,-99999.0,'11133222,11111222,99999999' 
WAVCIS,ioos:station:WAVCIS:CSI16:1,2009-05-08T07:00:00Z,29.4012,-89.0355,10.86,81.0,0.255,-99999.0,'11133222,11111222,99999999' 
WAVCIS,ioos:station:WAVCIS:CSI16:1,2009-05-08T08:00:00Z,29.4012,-89.0355,11.36,89.0,0.373,-99999.0,'11133222,11111222,99999999' 
WAVCIS,ioos:station:WAVCIS:CSI16:1,2009-05-08T09:00:00Z,29.4012,-89.0355,11.36,83.0,0.34,-99999.0,'11133222,11111222,99999999' 
WAVCIS,ioos:station:WAVCIS:CSI16:1,2009-05-08T10:00:00Z,29.4012,-89.0355,11.36,93.0,0.301,-99999.0,'11133222,11111222,99999999' 
WAVCIS,ioos:station:WAVCIS:CSI16:1,2009-05-08T11:00:00Z,29.4012,-89.0355,11.36,76.0,0.452,-99999.0,'11133222,11111222,99999999' 
WAVCIS,ioos:station:WAVCIS:CSI16:1,2009-05-08T12:00:00Z,29.4012,-89.0355,11.36,84.0,0.53,-99999.0,'11133222,11111222,99999999' 
WAVCIS,ioos:station:WAVCIS:CSI16:1,2009-05-08T13:00:00Z,29.4012,-89.0355,11.36,76.0,0.739,-99999.0,'11133222,11111222,99999999' 
WAVCIS,ioos:station:WAVCIS:CSI16:1,2009-05-08T14:00:00Z,29.4012,-89.0355,11.36,81.0,0.603,-99999.0,'11133222,11111222,99999999' 
WAVCIS,ioos:station:WAVCIS:CSI16:1,2009-05-08T15:00:00Z,29.4012,-89.0355,11.36,82.0,0.506,-99999.0,'11133222,11111222,99999999' 